EN

Hourly Weather Abram-Tyube

Today, 26 November, Thursday

Time Temperature Precipitation Wind Pressure Humidity
00:00 +3°C° 0 mm 3 mps 760 mmHg 68%
01:00 +3°C° 0 mm 3 mps 760 mmHg 68%
02:00 +2°C° 0 mm 3 mps 760 mmHg 69%
03:00 +2°C° 0 mm 3 mps 760 mmHg 73%
04:00 +1°C° 0 mm 4 mps 760 mmHg 73%
05:00 +1°C° 0 mm 4 mps 760 mmHg 74%
06:00 +1°C° 0 mm 4 mps 760 mmHg 75%
07:00 +3°C° 0 mm 4 mps 760 mmHg 78%
08:00 +2°C° 0 mm 5 mps 760 mmHg 81%
09:00 +2°C° 0 mm 5 mps 760 mmHg 82%
10:00 +2°C° 0 mm 5 mps 760 mmHg 81%
11:00 +3°C° 0 mm 5 mps 759 mmHg 81%
12:00 +3°C° 0 mm 5 mps 759 mmHg 80%
13:00 +3°C° 0 mm 5 mps 759 mmHg 81%
14:00 +3°C° 0 mm 5 mps 759 mmHg 82%
15:00 +3°C° 0 mm 5 mps 760 mmHg 84%
16:00 +3°C° 0.2 mm 5 mps 760 mmHg 85%
17:00 +2°C° 0.2 mm 5 mps 761 mmHg 86%
18:00 +2°C° 0.2 mm 5 mps 762 mmHg 87%
19:00 +3°C° 0 mm 4 mps 762 mmHg 84%
20:00 +1°C° 0 mm 4 mps 762 mmHg 81%
21:00 +2°C° 0 mm 3 mps 763 mmHg 78%
22:00 +2°C° 0 mm 3 mps 763 mmHg 77%
23:00 +2°C° 0 mm 3 mps 763 mmHg 75%

Tomorrow, 27 November, Friday

Time Temperature Precipitation Wind Pressure Humidity
00:00 +2°C° 0 mm 2 mps 763 mmHg 73%
01:00 +2°C° 0 mm 2 mps 764 mmHg 76%
02:00 +1°C° 0 mm 2 mps 764 mmHg 79%
03:00 -1°C° 0 mm 2 mps 765 mmHg 82%
04:00 -1°C° 0 mm 2 mps 765 mmHg 83%
05:00 -1°C° 0 mm 2 mps 765 mmHg 84%
06:00 -2°C° 0 mm 2 mps 765 mmHg 85%
07:00 +1°C° 0 mm 1 mps 765 mmHg 80%
08:00 +2°C° 0 mm 1 mps 766 mmHg 76%
09:00 +1°C° 0 mm 0 mps 766 mmHg 72%
10:00 +2°C° 0 mm 0 mps 766 mmHg 68%
11:00 +3°C° 0 mm 0 mps 765 mmHg 64%
12:00 +4°C° 0 mm 0 mps 765 mmHg 61%
13:00 +5°C° 0 mm 1 mps 765 mmHg 60%
14:00 +6°C° 0 mm 1 mps 765 mmHg 59%
15:00 +6°C° 0 mm 1 mps 765 mmHg 58%
16:00 +5°C° 0 mm 2 mps 765 mmHg 61%
17:00 +3°C° 0 mm 3 mps 765 mmHg 64%
18:00 +2°C° 0 mm 3 mps 765 mmHg 67%
19:00 +2°C° 0 mm 3 mps 765 mmHg 68%
20:00 +1°C° 0 mm 3 mps 765 mmHg 69%
21:00 +1°C° 0 mm 3 mps 765 mmHg 71%
22:00 +1°C° 0 mm 3 mps 765 mmHg 74%
23:00 +1°C° 0 mm 3 mps 765 mmHg 77%

Day after tomorrow, 28 November, Saturday

Time Temperature Precipitation Wind Pressure Humidity
00:00 0°C° 0 mm 3 mps 765 mmHg 80%
01:00 0°C° 0 mm 3 mps 765 mmHg 83%
02:00 0°C° 0 mm 3 mps 765 mmHg 87%
03:00 0°C° 0 mm 3 mps 764 mmHg 90%
04:00 +1°C° 0 mm 2 mps 764 mmHg 91%
05:00 +1°C° 0 mm 2 mps 764 mmHg 93%
06:00 +1°C° 0 mm 2 mps 764 mmHg 95%
07:00 +1°C° 0 mm 3 mps 764 mmHg 93%
08:00 +2°C° 0 mm 3 mps 764 mmHg 91%
09:00 +3°C° 0 mm 4 mps 764 mmHg 90%
10:00 +5°C° 0 mm 4 mps 763 mmHg 84%
11:00 +7°C° 0 mm 5 mps 763 mmHg 78%
12:00 +8°C° 0 mm 5 mps 762 mmHg 72%
13:00 +9°C° 0 mm 5 mps 762 mmHg 70%
14:00 +11°C° 0 mm 4 mps 762 mmHg 68%
15:00 +11°C° 0 mm 4 mps 762 mmHg 66%
16:00 +10°C° 0 mm 4 mps 762 mmHg 71%
17:00 +9°C° 0 mm 3 mps 762 mmHg 76%
18:00 +7°C° 0 mm 3 mps 762 mmHg 82%
19:00 +7°C° 0 mm 3 mps 762 mmHg 83%
20:00 +5°C° 0 mm 3 mps 762 mmHg 84%
21:00 +5°C° 0 mm 4 mps 762 mmHg 85%
22:00 +5°C° 0 mm 4 mps 762 mmHg 86%
23:00 +5°C° 0 mm 4 mps 762 mmHg 87%

29 November, Sunday

Time Temperature Precipitation Wind Pressure Humidity
00:00 +5°C° 0 mm 4 mps 762 mmHg 88%
01:00 +5°C° 0 mm 4 mps 762 mmHg 87%
02:00 +5°C° 0 mm 4 mps 762 mmHg 86%
03:00 +5°C° 0 mm 4 mps 762 mmHg 85%
04:00 +6°C° 0 mm 4 mps 762 mmHg 84%
05:00 +6°C° 0 mm 4 mps 762 mmHg 83%
06:00 +6°C° 0 mm 4 mps 762 mmHg 81%
07:00 +7°C° 0 mm 5 mps 762 mmHg 81%
08:00 +7°C° 0 mm 5 mps 763 mmHg 80%
09:00 +7°C° 0 mm 6 mps 763 mmHg 79%
10:00 +8°C° 0 mm 6 mps 763 mmHg 76%
11:00 +8°C° 0 mm 6 mps 762 mmHg 73%
12:00 +9°C° 0 mm 6 mps 762 mmHg 70%
13:00 +9°C° 0 mm 6 mps 762 mmHg 70%
14:00 +9°C° 0 mm 6 mps 762 mmHg 69%
15:00 +9°C° 0 mm 7 mps 762 mmHg 69%
16:00 +9°C° 0 mm 7 mps 762 mmHg 70%
17:00 +8°C° 0 mm 7 mps 763 mmHg 72%
18:00 +8°C° 0 mm 7 mps 763 mmHg 73%
19:00 +8°C° 0 mm 7 mps 763 mmHg 74%
20:00 +8°C° 0 mm 7 mps 763 mmHg 75%
21:00 +8°C° 0 mm 7 mps 763 mmHg 76%
22:00 +6°C° 0 mm 7 mps 763 mmHg 73%
23:00 +6°C° 0 mm 7 mps 763 mmHg 70%

30 November, Monday

Time Temperature Precipitation Wind Pressure Humidity
00:00 +6°C° 0 mm 7 mps 763 mmHg 66%
01:00 +6°C° 0 mm 7 mps 763 mmHg 64%
02:00 +6°C° 0 mm 7 mps 763 mmHg 62%
03:00 +6°C° 0 mm 8 mps 763 mmHg 59%
04:00 +6°C° 0 mm 8 mps 763 mmHg 60%
05:00 +6°C° 0 mm 8 mps 763 mmHg 61%
06:00 +5°C° 0 mm 8 mps 763 mmHg 63%
07:00 +5°C° 0 mm 8 mps 763 mmHg 64%
08:00 +5°C° 0 mm 9 mps 763 mmHg 66%
09:00 +5°C° 0 mm 9 mps 764 mmHg 68%
10:00 +6°C° 0 mm 10 mps 763 mmHg 67%
11:00 +6°C° 0 mm 10 mps 763 mmHg 67%
12:00 +6°C° 0 mm 10 mps 763 mmHg 66%
13:00 +6°C° 0 mm 10 mps 763 mmHg 67%
14:00 +6°C° 0 mm 10 mps 763 mmHg 68%
15:00 +4°C° 0 mm 11 mps 763 mmHg 68%
16:00 +5°C° 0 mm 10 mps 763 mmHg 69%
17:00 +5°C° 0 mm 10 mps 763 mmHg 70%
18:00 +3°C° 0 mm 10 mps 763 mmHg 72%
19:00 +3°C° 0 mm 10 mps 763 mmHg 70%
20:00 +3°C° 0 mm 10 mps 763 mmHg 68%
21:00 +3°C° 0 mm 10 mps 763 mmHg 67%
22:00 +3°C° 0 mm 10 mps 763 mmHg 69%
23:00 +3°C° 0 mm 10 mps 763 mmHg 70%

1 December, Tuesday

Time Temperature Precipitation Wind Pressure Humidity
00:00 +3°C° 0 mm 10 mps 763 mmHg 72%
01:00 +2°C° 0 mm 9 mps 763 mmHg 72%
02:00 +2°C° 0 mm 9 mps 762 mmHg 72%
03:00 +2°C° 0 mm 9 mps 762 mmHg 72%
04:00 +2°C° 0 mm 8 mps 762 mmHg 72%
05:00 +2°C° 0 mm 8 mps 762 mmHg 71%
06:00 +2°C° 0 mm 8 mps 762 mmHg 71%
07:00 +2°C° 0 mm 8 mps 763 mmHg 71%
08:00 +3°C° 0 mm 9 mps 763 mmHg 71%
09:00 +3°C° 0 mm 9 mps 763 mmHg 70%
10:00 +3°C° 0 mm 9 mps 763 mmHg 70%
11:00 +3°C° 0 mm 9 mps 763 mmHg 69%
12:00 +5°C° 0 mm 9 mps 763 mmHg 68%
13:00 +3°C° 0 mm 9 mps 763 mmHg 69%
14:00 +3°C° 0 mm 9 mps 763 mmHg 70%
15:00 +3°C° 0 mm 9 mps 763 mmHg 71%
16:00 +4°C° 0 mm 8 mps 763 mmHg 72%
17:00 +2°C° 0 mm 8 mps 763 mmHg 73%
18:00 +2°C° 0 mm 8 mps 763 mmHg 74%
19:00 +2°C° 0 mm 8 mps 763 mmHg 76%
20:00 +2°C° 0 mm 8 mps 764 mmHg 78%
21:00 +1°C° 0 mm 8 mps 764 mmHg 80%
22:00 +1°C° 0.1 mm 8 mps 763 mmHg 79%
23:00 +2°C° 0.1 mm 8 mps 763 mmHg 78%
Show more